Weather History for KSSC - July, 2013

Change the Weather History Date:

Sunday, July 28, 2013

  Actual Average Record
Temperature  
Mean Temperature 80 °F -  
Max Temperature 89 °F 87 °F 98 °F (2002)
Min Temperature 71 °F 69 °F 68 °F (2007)
Cooling Degree Days 15    
Growing Degree Days 30 (Base 50)    
Moisture  
Dew Point 72 °F    
Average Humidity 89    
Maximum Humidity 100    
Minimum Humidity 57    
Precipitation  
Precipitation 0.00 in - - ()
Sea Level Pressure  
Sea Level Pressure 29.95 in    
Wind  
Wind Speed 4 mph (SSE)    
Max Wind Speed 12 mph    
Max Gust Speed -    
Visibility 10 miles    
Events Rain , Thunderstorm    
Averages and records for this station are not official NWS values.
T = Trace of Precipitation, MM = Missing Value Source: NWS Daily Summary

Daily Weather History Graph

Daily Weather History Graph

Search for Another Location

Airport or City:

Trip Planner

Search our weather history database for the weather conditions in past years. The results will help you decide how hot, cold, wet, or windy it might be!

Date:

Astronomy

Jul. 28, 2013 Rise Set
Actual Time 6:30 AM EDT 8:25 PM EDT
Civil Twilight 6:03 AM EDT 8:53 PM EDT
Nautical Twilight 5:29 AM EDT 9:26 PM EDT
Astronomical Twilight 4:53 AM EDT 10:02 PM EDT
Moon No Moon Rise 12:49 PM EDT (7/28)
Length of Visible Light 14h 50m
Length of Day
13h 54m
Waning Gibbous, 61% of the Moon is Illuminated
Jul 28
Waning Gibbous
Jul 29
Last Quarter
Aug 6
New
Aug 14
First Quarter
Aug 20
Full

Hourly Weather History & Observations

Time (EDT) Temp. Heat Index Dew Point Humidity Pressure Visibility Wind Dir Wind Speed Gust Speed Precip Events Conditions
12:03 AM 71.6 °F - 71.6 °F 100% 29.94 in 5.0 mi East 6.9 mph - N/A   Mostly Cloudy
12:20 AM 73.4 °F - 71.6 °F 94% 29.94 in 4.0 mi East 5.8 mph - N/A   Mostly Cloudy
12:30 AM 73.4 °F - 71.6 °F 94% 29.95 in 5.0 mi East 5.8 mph - N/A   Mostly Cloudy
12:45 AM 73.4 °F - 71.6 °F 94% 29.94 in 8.0 mi East 2.3 mph - N/A   Mostly Cloudy
12:55 AM 73.4 °F - 71.6 °F 94% 29.94 in 10.0 mi ENE 2.3 mph - N/A   Scattered Clouds
12:58 AM 72.5 °F - 71.2 °F 96% 29.94 in 10.0 mi ENE 1.2 mph - N/A   Scattered Clouds
1:03 AM 73.4 °F - 71.6 °F 94% 29.94 in 9.0 mi East 3.5 mph - N/A   Scattered Clouds
1:18 AM 73.4 °F - 71.6 °F 94% 29.94 in 7.0 mi East 2.3 mph - N/A   Partly Cloudy
1:23 AM 71.6 °F - 71.6 °F 100% 29.94 in 8.0 mi East 2.3 mph - N/A   Clear
1:48 AM 71.6 °F - 71.6 °F 100% 29.93 in 10.0 mi ESE 2.3 mph - N/A   Partly Cloudy
1:58 AM 72.3 °F - 71.1 °F 96% 29.94 in 10.0 mi SE 2.3 mph - N/A   Scattered Clouds
2:08 AM 71.6 °F - 71.6 °F 100% 29.93 in 10.0 mi ESE 2.3 mph - N/A   Mostly Cloudy
2:33 AM 71.6 °F - 71.6 °F 100% 29.93 in 10.0 mi SE 4.6 mph - N/A   Mostly Cloudy
2:58 AM 72.0 °F - 70.7 °F 96% 29.93 in 10.0 mi ESE 2.3 mph - N/A   Scattered Clouds
3:18 AM 71.6 °F - 69.8 °F 94% 29.93 in 9.0 mi ESE 2.3 mph - N/A   Partly Cloudy
3:23 AM 71.6 °F - 69.8 °F 94% 29.93 in 10.0 mi East 2.3 mph - N/A   Scattered Clouds
3:28 AM 71.6 °F - 69.8 °F 94% 29.93 in 9.0 mi ESE 2.3 mph - N/A   Mostly Cloudy
3:33 AM 71.6 °F - 71.6 °F 100% 29.93 in 9.0 mi SE 3.5 mph - N/A   Mostly Cloudy
3:38 AM 71.6 °F - 71.6 °F 100% 29.93 in 10.0 mi ESE 3.5 mph - N/A   Mostly Cloudy
3:58 AM 72.1 °F - 70.5 °F 95% 29.93 in 10.0 mi South 2.3 mph - N/A   Overcast
4:08 AM 71.6 °F - 69.8 °F 94% 29.93 in 10.0 mi SSE 2.3 mph - N/A Thunderstorm Overcast
4:23 AM 71.6 °F - 69.8 °F 94% 29.92 in 10.0 mi Calm Calm - N/A   Mostly Cloudy
4:48 AM 71.6 °F - 69.8 °F 94% 29.93 in 10.0 mi SE 1.2 mph - N/A   Mostly Cloudy
4:53 AM 71.6 °F - 69.8 °F 94% 29.93 in 10.0 mi SE 2.3 mph - N/A   Mostly Cloudy
4:58 AM 72.1 °F - 70.7 °F 95% 29.93 in 10.0 mi SE 3.5 mph - N/A   Overcast
5:38 AM 71.6 °F - 71.6 °F 100% 29.93 in 10.0 mi South 2.3 mph - N/A   Overcast
5:58 AM 72.1 °F - 70.7 °F 95% 29.94 in 10.0 mi South 2.3 mph - N/A   Mostly Cloudy
6:03 AM 71.6 °F - 71.6 °F 100% 29.94 in 10.0 mi South 2.3 mph - N/A   Mostly Cloudy
6:08 AM 71.6 °F - 71.6 °F 100% 29.94 in 10.0 mi SW 2.3 mph - N/A   Mostly Cloudy
6:18 AM 71.6 °F - 71.6 °F 100% 29.95 in 10.0 mi SSW 4.6 mph - N/A   Mostly Cloudy
6:23 AM 71.6 °F - 71.6 °F 100% 29.95 in 10.0 mi SW 3.5 mph - N/A   Mostly Cloudy
6:27 AM 71.6 °F - 71.6 °F 100% 29.95 in 10.0 mi SW 4.6 mph - N/A   Mostly Cloudy
6:52 AM 71.6 °F - 71.6 °F 100% 29.95 in 10.0 mi SSW 2.3 mph - N/A   Mostly Cloudy
6:58 AM 72.5 °F - 71.2 °F 96% 29.95 in 10.0 mi South 2.3 mph - N/A   Mostly Cloudy
7:33 AM 73.4 °F - 71.6 °F 94% 29.95 in 10.0 mi SSW 3.5 mph - N/A   Mostly Cloudy
7:48 AM 73.4 °F - 71.6 °F 94% 29.96 in 10.0 mi South 3.5 mph - N/A   Mostly Cloudy
7:58 AM 73.0 °F - 72.0 °F 96% 29.96 in 10.0 mi South 2.3 mph - N/A   Overcast
8:13 AM 73.4 °F - 73.4 °F 100% 29.96 in 10.0 mi SW 3.5 mph - N/A   Overcast
8:58 AM 75.2 °F - 73.4 °F 94% 29.96 in 10.0 mi WSW 4.6 mph - N/A   Overcast
9:28 AM 75.2 °F - 73.4 °F 94% 29.97 in 10.0 mi West 5.8 mph - N/A   Overcast
9:58 AM 75.9 °F - 72.9 °F 90% 29.97 in 10.0 mi WSW 5.8 mph - N/A   Overcast
10:03 AM 77.0 °F - 73.4 °F 89% 29.97 in 10.0 mi SW 4.6 mph - N/A   Overcast
10:18 AM 77.0 °F - 73.4 °F 89% 29.98 in 10.0 mi WSW 5.8 mph - N/A   Mostly Cloudy
10:38 AM 77.0 °F - 73.4 °F 89% 29.98 in 10.0 mi WSW 5.8 mph - N/A   Mostly Cloudy
10:58 AM 77.9 °F - 73.6 °F 86% 29.98 in 10.0 mi SW 3.5 mph - N/A   Scattered Clouds
11:58 AM 81.3 °F 86.8 °F 73.8 °F 78% 29.98 in 10.0 mi WSW 5.8 mph - N/A   Partly Cloudy
12:58 PM 84.7 °F 89.7 °F 70.7 °F 63% 29.97 in 10.0 mi WSW 8.1 mph - N/A   Partly Cloudy
1:58 PM 86.2 °F 93.8 °F 73.4 °F 66% 29.97 in 10.0 mi Variable 2.3 mph - N/A   Partly Cloudy
2:58 PM 87.1 °F 94.9 °F 73.4 °F 64% 29.95 in 10.0 mi South 8.1 mph - N/A   Partly Cloudy
3:58 PM 88.3 °F 95.9 °F 73.0 °F 60% 29.94 in 10.0 mi South 9.2 mph - N/A   Scattered Clouds
4:58 PM 89.1 °F 96.0 °F 72.1 °F 57% 29.93 in 10.0 mi SW 9.2 mph - N/A   Partly Cloudy
5:58 PM 88.0 °F 97.0 °F 74.3 °F 64% 29.93 in 10.0 mi South 10.4 mph - N/A   Clear
6:48 PM 82.4 °F 88.2 °F 73.4 °F 74% 29.96 in 10.0 mi ESE 11.5 mph - N/A Thunderstorm Thunderstorm
6:58 PM 80.8 °F 85.2 °F 72.7 °F 76% 29.96 in 10.0 mi East 10.4 mph - N/A Thunderstorm Thunderstorm
7:03 PM 80.6 °F 85.4 °F 73.4 °F 79% 29.96 in 10.0 mi ESE 6.9 mph - N/A   Scattered Clouds
7:10 PM 80.6 °F 84.6 °F 71.6 °F 74% 29.96 in 10.0 mi Variable 5.8 mph - N/A Thunderstorm Thunderstorm
7:25 PM 80.6 °F 84.6 °F 71.6 °F 74% 29.97 in 10.0 mi ESE 6.9 mph - N/A Thunderstorm Scattered Clouds
7:32 PM 78.8 °F - 69.8 °F 74% 29.97 in 10.0 mi ESE 10.4 mph - N/A Thunderstorm Thunderstorm
7:47 PM 78.8 °F - 71.6 °F 78% 29.97 in 10.0 mi SE 6.9 mph - N/A Thunderstorm Partly Cloudy
7:58 PM 78.1 °F - 71.2 °F 79% 29.98 in 10.0 mi SE 8.1 mph - N/A   Scattered Clouds
8:23 PM 77.0 °F - 71.6 °F 83% 29.98 in 10.0 mi SE 5.8 mph - N/A Rain Light Rain
8:36 PM 77.0 °F - 71.6 °F 83% 29.98 in 10.0 mi SE 5.8 mph - N/A   Clear
8:58 PM 77.0 °F - 71.2 °F 82% 29.98 in 10.0 mi SSE 3.5 mph - 0.00 in   Clear
9:58 PM 76.5 °F - 72.1 °F 86% 30.00 in 10.0 mi SE 2.3 mph - N/A   Partly Cloudy
10:58 PM 76.5 °F - 72.7 °F 88% 30.00 in 10.0 mi South 3.5 mph - N/A   Clear
11:58 PM 77.0 °F - 72.9 °F 87% 30.02 in 10.0 mi South 2.3 mph - N/A   Partly Cloudy